This is the latest recevied weather packets stored in our database for station/object DL1GHN-6. If no packets are shown the sender has not sent any weather packets the latest 10 day(s).
| Time | Temp. | Humidity | Pressure | Rain* | Wind** | Luminosity | Snow |
|---|---|---|---|---|---|---|---|
| 1777989618 | 19.44° C | 72% | 1007.2 hPa | 0 mm | - | 475 W/m² | - |
| 1777989317 | 19.44° C | 72% | 1007.3 hPa | 0 mm | - | 605 W/m² | - |
| 1777989017 | 18.89° C | 76% | 1007.5 hPa | 0 mm | - | 668 W/m² | - |
| 1777988718 | 18.33° C | 75% | 1007.5 hPa | 0 mm | - | 285 W/m² | - |
| 1777988418 | 18.33° C | 76% | 1007.6 hPa | 0 mm | - | 401 W/m² | - |
| 1777988117 | 18.89° C | 74% | 1007.6 hPa | 0 mm | - | 330 W/m² | - |
| 1777987819 | 18.89° C | 74% | 1007.7 hPa | 0 mm | - | 499 W/m² | - |
| 1777987518 | 18.89° C | 76% | 1007.7 hPa | 0 mm | - | 350 W/m² | - |
| 1777987219 | 18.89° C | 76% | 1007.8 hPa | 0 mm | - | 443 W/m² | - |
| 1777986918 | 18.33° C | 77% | 1007.7 hPa | 0 mm | - | 452 W/m² | - |
| 1777986618 | 18.33° C | 77% | 1007.8 hPa | 0 mm | - | 471 W/m² | - |
| 1777986318 | 17.78° C | 79% | 1007.8 hPa | 0 mm | - | 483 W/m² | - |
| 1777986017 | 17.78° C | 81% | 1007.9 hPa | 0 mm | - | 432 W/m² | - |
| 1777985719 | 17.22° C | 80% | 1007.9 hPa | 0 mm | - | 278 W/m² | - |
| 1777985418 | 17.22° C | 80% | 1008 hPa | 0 mm | - | 236 W/m² | - |
| 1777985118 | 17.22° C | 80% | 1008 hPa | 0 mm | - | 225 W/m² | - |
| 1777984817 | 17.22° C | 78% | 1008.1 hPa | 0 mm | - | 213 W/m² | - |
| 1777984517 | 17.22° C | 80% | 1008.1 hPa | 0 mm | - | 220 W/m² | - |
| 1777984217 | 17.22° C | 82% | 1008.1 hPa | 0 mm | - | 223 W/m² | - |
| 1777983918 | 17.22° C | 80% | 1008.1 hPa | 0 mm | - | 232 W/m² | - |
| 1777983617 | 16.67° C | 81% | 1008.1 hPa | 0 mm | - | 230 W/m² | - |
| 1777983318 | 17.22° C | 80% | 1008.2 hPa | 0 mm | - | 223 W/m² | - |
| 1777983018 | 17.22° C | 81% | 1008.3 hPa | 0 mm | - | 244 W/m² | - |
| 1777982718 | 17.22° C | 82% | 1008.4 hPa | 0 mm | - | 243 W/m² | - |
| 1777982418 | 17.22° C | 82% | 1008.4 hPa | 0 mm | - | 267 W/m² | - |
* Rain latest hour (hover to see other rain measurements)
** Current wind speed in m/s (hover to see current wind gust speed)